Regional Weather Roundup
Issued by NWS Sterling, VA

Home | Current Version | Previous Version | Text Only | Print | Product List | Glossary Off
Versions: 1 2 3 4 5 6 7 8 9 10 11 12 13 14 15 16 17 18 19 20 21 22 23 24 25 26 27 28 29 30 31 32 33 34 35 36 37 38 39 40 41 42 43 44 45 46 47 48 49 50

000
ASUS41 KLWX 191410
RWRLWX

REGIONAL WEATHER ROUNDUP
NATIONAL WEATHER SERVICE BALTIMORE MD/WASHINGTON DC
1000 AM EDT FRI SEP 19 2014

Note: "FAIR" indicates few or no clouds below 12,000 feet
with no significant weather and/or obstructions to visibility.
 TC=TEMPERATURE CELSIUS

 * =Non NWS site. Station does not report precipitation (e.g. rain,
    snow, etc.), thunder, or fog.

DCZ001-MDZ009-015-VAZ040>042-051-053>054-191500-
WASHINGTON METRO

CITY           SKY/WX    TMP DP  RH WIND       PRES   REMARKS
WASHINGTON NAT PTSUNNY   66  53  63 NE10      30.26S
DULLES         PTSUNNY   61  52  72 VRB6      30.27R
ANDREWS AFB    MOSUNNY   62  55  80 NE8       30.25S
QUANTICO       MOSUNNY   65  56  72 VRB6      30.26R
COLLEGE PARK*  PTSUNNY   63  54  72 NE6       30.26R
LEESBURG*      PTSUNNY   61  54  77 NE9       30.28S
MANASSAS*      MOSUNNY   63  55  77 E5        30.25S
GAITHERSBURG*  PTSUNNY   61  52  72 E6        30.30R

$$

MDZ006>007-011-014-191500-
BALTIMORE METRO

CITY           SKY/WX    TMP DP  RH WIND       PRES   REMARKS
BWI AIRPORT    MOSUNNY   63  51  65 E13       30.27R
MD SCIENCE CTR   N/A     63  52  67 MISG      30.28R
ANNAPOLIS      SUNNY     63  54  72 E9        30.26R
FORT MEADE*    MOSUNNY   63  52  67 NE7       30.29R

$$

MDZ012-015-019>023-191500-
MARYLAND EASTERN SHORE

CITY           SKY/WX    TMP DP  RH WIND       PRES   REMARKS
OCEAN CITY     SUNNY     71  61  70 NE7       30.23R
SALISBURY      SUNNY     71  59  65 NE5       30.23R
BAY BRIDGE AP*   N/A     63  54  72 NE7       30.26R
CAMBRIDGE*     SUNNY     64  57  77 NE6       30.24S
EASTON*        MOSUNNY   66  57  72 E8        30.29R

$$

MDZ017>025-191500-
SOUTHERN MARYLAND

CITY           SKY/WX    TMP DP  RH WIND       PRES   REMARKS
PATUXENT RIVER MOSUNNY   68  58  70 N9        30.24R
ST INIGOES     PTSUNNY   70  58  65 NE9       30.22R
LEONARDTOWN*   MOSUNNY   64  55  72 E8        30.25R

$$

MDZ003>005-191500-
NORTH CENTRAL MARYLAND

CITY           SKY/WX    TMP DP  RH WIND       PRES   REMARKS
FREDERICK*     SUNNY     64  55  72 NE6       30.30S
HAGERSTOWN APT SUNNY     62  50  64 NE9       30.27R
WESTMINSTER*   SUNNY     61  52  72 E7        30.28R

$$

MDZ501>502-191500-
WESTERN MARYLAND

CITY           SKY/WX    TMP DP  RH WIND       PRES   REMARKS
OAKLAND*       PTSUNNY   52  50  93 SE10G16   30.26R
CUMBERLAND*    SUNNY     63  52  67 CALM      30.31R

$$

VAZ025>031-191500-
SHENANDOAH VALLEY

CITY           SKY/WX    TMP DP  RH WIND       PRES   REMARKS
WINCHESTER*    CLOUDY    61  50  67 NE7       30.27S
STAUNTON*      CLOUDY    62  50  65 NE3       30.26R

$$

WVZ021-048>050-054>055-191500-
EASTERN WEST VIRGINIA PANHANDLE

CITY           SKY/WX    TMP DP  RH WIND       PRES   REMARKS
MARTINSBURG    MOSUNNY   61  50  67 NE3       30.28R
PETERSBURG*    CLOUDY    59  49  69 CALM      30.28S

$$

VAZ036>039-050-191500-
CENTRAL FOOTHILLS

CITY           SKY/WX    TMP DP  RH WIND       PRES   REMARKS
CHARLOTTESVILL CLOUDY    65  54  67 E9        30.24R
ORANGE*        CLOUDY    63  54  72 N8        30.26R

$$

VAZ055>057-191500-
NORTH AND CENTRAL PIEDMONT

CITY           SKY/WX    TMP DP  RH WIND       PRES   REMARKS
FREDERICKSBRG* PTSUNNY   66  61  85 NE10      30.24R
STAFFORD*      SUNNY     65  59  79 E10       30.28S

$$

NCZ024-NYZ072-PAZ021-071-VAZ022-071-191500-
OTHER REGIONAL OBSERVATIONS

CITY           SKY/WX    TMP DP  RH WIND       PRES   REMARKS
NEW YORK CITY  MOSUNNY   57  40  52 NE9G18    30.36R
PHILADELPHIA   PTSUNNY   63  51  65 NE15      30.30R
PITTSBURGH     MOSUNNY   56  50  80 E7        30.23S
ROANOKE        CLOUDY    63  55  75 NE7       30.23R
RICHMOND       CLOUDY    68  59  73 CALM      30.23R
RALEIGH        PTSUNNY   69  57  65 E12       30.19R

$$

ANZ530>537-191500-
MARINE OBSERVATIONS

STATION/POSITION TIME  TEMP    WIND        PRES
                       AIR SEA DIR/SP/G
                 (UTC) (F)     (DEG/KT/KT) (MB)
THOMAS PT LIGHT  1400   62 73   40/ 12/ 13 1025.6R
BALT KEY BRIDGE  1400   61      30/ 10/ 12 1024.8R
COVE POINT       1400   63      40/ 11/ 13 1024.0R
LEWISETTA        1400   69 73   50/  6/  9 1023.1R
SOLOMONS ISLAND  1400      75                N/A
PINEY POINT      1400           70/  7/  8   N/A

$$



USA.gov is the U.S. government's official web portal to all federal, state and local government web resources and services.